Regional Weather Roundup
Issued by NWS Grand Forks, ND

Home | Current Version | Previous Version | Text Only | Print | Product List | Glossary Off
Versions: 1 2 3 4 5 6 7 8 9 10 11 12 13 14 15 16 17 18 19 20 21 22 23 24 25 26 27 28 29 30 31 32 33 34 35 36 37 38 39 40 41 42 43 44 45 46 47 48 49 50

000
ASUS43 KFGF 282331
RWRFGF
PRAIRIE TO PINES  WEATHER ROUNDUP
NATIONAL WEATHER SERVICE EASTERN NORTH DAKOTA/GRAND FORKS ND
600 PM CDT TUE MAR 28 2017

 **SATELLITE DATA USED TO AUGMENT SKY COVER AT AUTOMATED STATIONS**
 *****  WEATHER ACROSS EASTERN NORTH DAKOTA  *****

CITY           SKY/WX    TMP DP  RH WIND       PRES   REMARKS
GRAND FORKS    PTSUNNY   54  44  69 NE8       30.16F
GRAND FRKS AFB FAIR      51  40  66 NE8       30.17F
DEVILS LAKE    FAIR      50  39  66 E13       30.16R
FARGO          FAIR      58  41  53 NE7       30.14S
WAHPETON ARPT  FAIR      55  36  47 N3        30.15R
$$

 ***** WEATHER ACROSS CENTRAL AND WESTERN NORTH DAKOTA  *****

CITY           SKY/WX    TMP DP  RH WIND       PRES   REMARKS
BISMARCK       FAIR      61  36  39 SE10      30.08S
MINOT          FAIR      54  43  66 E13       30.07F
JAMESTOWN      FAIR      53  41  63 E10       30.13R
MINOT AFB      PTSUNNY   45  41  83 SE13      30.07F
GARRISON         N/A     58  35  42 S9        30.06S
WILLISTON      CLOUDY    51  41  68 W16G22    30.08R HAZE
DICKINSON      PTSUNNY   59  30  33 S10       30.01S
HETTINGER      PTSUNNY   53  41  63 S13       30.08R
$$

 *****  OTHER AIRPORT OBSERVATIONS IN OUR AREA  *****

CITY           SKY/WX    TMP DP  RH WIND       PRES   REMARKS
WALHALLA       NOT AVBL
GRAFTON AIRPOR FAIR      45  43  93 N9        30.21R
VALLEY CITY AR FAIR      52  37  58 E9        30.17R
CANDO          NOT AVBL
CAVALIER APRT  FAIR      41  36  81 N7G13     30.20S
GWINNER        CLEAR     57  37  47 MISG      30.14R
SHEYENNE NWR     N/A     56  37  48 NE6       29.95S
ROLLA          FAIR      41  41 100 E9        30.16S
 ***** THE ABOVE OBSERVATIONS ARE NON NWS ARE NOT QUALITY
       CONTROLLED AND MAY MIS-REPORT RAIN FOR SNOW...
$$

  *****  WEATHER ACROSS NORTHERN MINNESOTA  *****

CITY           SKY/WX    TMP DP  RH WIND       PRES   REMARKS
FLAG ISLAND    CLOUDY    45  23  42 NE5       30.21S
WARROAD        FAIR      43  32  65 NE7       30.21S
ROSEAU         FAIR      50  37  62 E8        30.19F
HALLOCK        FAIR      46  41  81 N8        30.19F
THF RVR FALLS  FAIR      54  35  48 N8        30.17F
BAUDETTE       FAIR      50  29  44 MISG      30.19S
WASKISH        FAIR      50  32  50 NW3       30.16F
CROOKSTON      FAIR      54  39  58 NE3       30.18R
STEPHEN NDAWN    N/A     48  43  81 N8          N/A
GREENBUSH NDAW   N/A     52  37  58 NE3         N/A
$$
  *****  WEATHER ACROSS CENTRAL AND WEST MINNESOTA  *****

CITY           SKY/WX    TMP DP  RH WIND       PRES   REMARKS
FOSSTON        FAIR      55  43  62 NE6       30.16R
BEMIDJI        FAIR      56  31  38 N7        30.14S
PARK RAPIDS    FAIR      61  27  27 NE8       30.11F
ELBOW LAKE     FAIR      58  38  47 CALM      30.14R
WADENA         FAIR      59  36  41 CALM      30.12R
DETROIT LAKES  FAIR      55  36  47 N7        30.15R
MOORHEAD       FAIR      55  41  58 N3        30.16R
FERGUS FALLS   FAIR      57  39  51 N6        30.16R
MORRIS MN      FAIR      61  36  39 CALM      30.12R
STAPLES        PTSUNNY   61  28  29 CALM      30.12R
$$
  *****  WEATHER ELSEWHERE ACROSS MINNESOTA  *****

CITY           SKY/WX    TMP DP  RH WIND       PRES   REMARKS
DULUTH         FAIR      54  32  43 SE6       30.14S
INTRNTL FALLS  FAIR      52  27  38 E6        30.19S
ELY            FAIR      54  25  32 NE6       30.16S
CLOQUET        PTSUNNY   59  25  27 E3        30.13S
WHEATON        FAIR      57  37  47 CALM      30.16R
BRAINERD       FAIR      61  29  29 NE7       30.12S
HIBBING        FAIR      56  28  34 NW6       30.14F
ALEXANDRIA     FAIR      61  33  35 N3        30.12S
SAINT CLOUD    FAIR      61  24  24 VRB3      30.12S
MINNEAPOLIS    PTSUNNY   64  30  27 NE3       30.12S
$$

  *****  WEATHER ACROSS SOUTH DAKOTA  *****

CITY           SKY/WX    TMP DP  RH WIND       PRES   REMARKS
SIOUX FALLS    CLOUDY    60  38  43 E14       30.08S
BROOKINGS      NOT AVBL
WATERTOWN      FAIR      56  35  45 E10       30.11S
HURON          FAIR      59  36  42 E8        30.09R
SISSETON         N/A     58  39  49 S5        30.13R
ABERDEEN       FAIR      58  31  35 E10       30.11R
MITCHELL       FAIR      60  36  40 E13       30.09R
PIERRE         CLOUDY    53  42  66 W9        30.08R
MOBRIDGE       CLOUDY    58  36  43 SE9       30.07R
RAPID CITY     CLOUDY    45  42  89 VRB3      30.06R
$$

  *****  SOME WEATHER IN NEARBY STATES *****

CITY           SKY/WX    TMP DP  RH WIND       PRES   REMARKS
GLASGOW MT     PTSUNNY   58  26  29 SW12      30.03S
GREAT FALLS MT FAIR      52  21  29 SW21G26   30.04F
CHEYENNE WY    LGT RAIN  39  37  92 N22G33    29.93R
SCOTTSBLUFF NE LGT RAIN  44  40  85 E14       30.01R FOG
OMAHA NE       CLOUDY    51  41  68 E8        30.08R
DES MOINES IA  CLOUDY    52  42  69 NE8       30.10S
DAVENPORT IA   CLOUDY    49  41  74 NE10      30.14S
CHICAGO IL     PTSUNNY   44  36  73 NE9       30.16R
EAU CLAIRE WI  FAIR      61  22  22 NE7       30.13R
LA CROSSE WI   FAIR      61  38  42 W6        30.13R
$$

  *****  SOME NATIONAL WEATHER *****

CITY           SKY/WX    TMP DP  RH WIND       PRES   REMARKS
LA GUARDIA NY  LGT RAIN  42  38  85 NE15      29.91R FOG
RALEIGH NC     MOCLDY    74  53  48 NW3       29.88R
ATLANTA GA     FAIR      77  58  51 NW8       29.95R
NEW ORLEANS LA FAIR      78  62  57 S14       29.94S
OKLAHOMA CITY  LGT RAIN  67  59  75 E14       29.74F
ALBUQUERQUE NM PTSUNNY   47  37  68 NE16      29.81S
SALT LAKE CITY FAIR      54  31  41 NW20G26   30.14R
LOS ANGELES CA FAIR      70  46  42 W15       29.96F
BOISE ID       FAIR      54  30  40 N12       30.25F
SEATTLE WA     CLOUDY    52  44  74 S13G24    30.20F
$$

*** WEATHER ACROSS MANITOBA...SASKATCHEWAN AND ONTARIO ***
                ***ONTARIO***

CITY           SKY/WX    TMP DP  RH WIND       PRES   REMARKS
GERALDTON      PTSUNNY   34  18  51 N10       30.27R
THUNDER BAY    MOSUNNY   45  28  53 E9        30.22R
SIOUX LOOKOUT  MOSUNNY   41  18  38 N6        30.24S
TORONTO        MOCLDY    41  36  81 N17       30.08R
BIG TROUT LK     N/A     32  14  47 MISG      30.36S
PICKLE LAKE    PTSUNNY   30  18  59 N7        30.31R WCI  23
DRYDEN         SUNNY     43  19  39 NE5       30.23R
KENORA         MOSUNNY   46  18  31 NE5       30.22S
$$
                *** MANITOBA***

CITY           SKY/WX    TMP DP  RH WIND       PRES   REMARKS
BRANDON        CLOUDY    34  27  75 E18       30.18F WCI  23
DAUPHIN        MIX PCPN  36  27  69 E9        30.22S
ISLAND LAKE    MOSUNNY   32  16  51 SE3       30.33
PILOT MOUND      N/A     37  32  81 E8          N/A
THE PAS        CLOUDY    32  18  55 SE15      30.23S WCI  22
THOMPSON       PTSUNNY   28  12  50 SE3       30.31F
WINNIPEG       PTSUNNY   37  30  75 NE10      30.23F
LYNN LAKE      SUNNY     32  16  51 S12       30.21S WCI  23
CHURCHILL      CLOUDY    18   5  57 S10       30.45F WCI   6
GILLAM         MOSUNNY   25   9  50 NE8       30.40S WCI  16
$$
                ***SASKATCHEWAN***

CITY           SKY/WX    TMP DP  RH WIND       PRES   REMARKS
ESTEVAN        CLOUDY    37  36  93 E10       30.09S
KINDERSLEY     PTSUNNY   55  25  30 SW13G21   29.88F
LLOYDMINSTER   CLOUDY    43  41  93 SE15      29.90S
PRINCE ALBERT  CLOUDY    36  32  87 E8        30.07R
REGINA         CLOUDY    39  36  87 SE17      30.06S
YORKTON        LGT RAIN  36  32  87 SE12G18   30.13F
N. BATTLEFORD  CLOUDY    41  41 100 SE12      29.97F
LA RONGE       CLOUDY    34  32  93 N3        30.08S
SASKATOON      PTSUNNY   50  39  66 E13       29.98F
SWIFT CURRENT  MOSUNNY   57  25  28 SW18      29.93F
$$
NOTE: THESE ARE AUTOMATED STATIONS WITH LIMITED QUALITY CONTROL
      "FAIR" INDICATES FEW OR NO CLOUDS BELOW 12,000 FEET WITH NO
      SIGNIFICANT WEATHER AND/OR OBSTRUCTIONS TO VISIBILITY.
      SKY/WX - SKY CONDITION AND SIGNIFICANT WEATHER.
      TMP - AIR TEMPERATURE.    DP   - DEWPOINT TEMPERATURE.
      RH  - RELATIVE HUMIDITY.  PRES - PRESSURE.
      HX  - HEAT INDEX.         WCI  - WIND CHILL INDEX.
$




USA.gov is the U.S. government's official web portal to all federal, state and local government web resources and services.